ZL2VAX Weather Reports


Display with metric or nautical units.
time (UTC)temp
F
wind
direction
speed
MPH
gust
MPH
rain 1hr
in
rain 24hr
in
rain mn
in
humidity
%
barometer
mb
20260505035614 61 345 2.0 6.0 0.00 0.00 0.00 67 1032.2
20260505034612 61 261 2.0 6.0 0.00 0.00 0.00 67 1032.3
20260505033609 61 275 3.0 7.0 0.00 0.00 0.00 67 1032.3
20260505032607 61 308 3.0 7.0 0.00 0.00 0.00 67 1032.3
20260505031605 63 52 1.0 4.0 0.00 0.00 0.00 65 1032.2
20260505030643 61 258 2.0 4.0 0.00 0.00 0.00 67 1032.2
20260505025603 61 277 4.0 9.0 0.00 0.00 0.00 67 1032.3
20260505024557 61 247 4.0 11.0 0.00 0.00 0.00 67 1032.2
20260505023554 62 104 1.0 4.0 0.00 0.00 0.00 66 1032.3
20260505022612 62 257 2.0 6.0 0.00 0.00 0.00 67 1032.3
20260505021609 62 244 6.0 13.0 0.00 0.00 0.00 67 1032.3
20260505020547 62 259 3.0 9.0 0.00 0.00 0.00 66 1032.5
20260505015543 61 259 4.0 11.0 0.00 0.00 0.00 68 1032.5
20260505014541 61 267 3.0 7.0 0.00 0.00 0.00 68 1032.5
20260505013604 60 259 4.0 11.0 0.00 0.00 0.00 70 1032.7
20260505012537 61 289 5.0 11.0 0.00 0.00 0.00 68 1032.9
20260505011534 60 224 4.0 9.0 0.00 0.00 0.00 67 1033.0
20260505010530 60 292 3.0 7.0 0.00 0.00 0.00 68 1033.2
20260505005528 60 276 4.0 13.0 0.00 0.00 0.00 67 1033.3
20260505004546 60 259 6.0 16.0 0.00 0.00 0.00 68 1033.5
20260505003523 60 220 2.0 8.0 0.00 0.00 0.00 66 1033.6
20260505002521 60 244 5.0 13.0 0.00 0.00 0.00 68 1033.7
20260505001518 60 332 1.0 7.0 0.00 0.00 0.00 67 1033.8
20260505000636 59 291 3.0 11.0 0.00 0.00 0.00 68 1034.0
20260504235612 58 292 5.0 13.0 0.00 0.00 0.00 70 1034.2
20260504234611 59 222 6.0 13.0 0.00 0.00 0.00 69 1034.5
20260504233608 60 293 4.0 9.0 0.00 0.00 0.00 69 1034.5
20260504232605 58 319 1.0 4.0 0.00 0.00 0.00 70 1034.6
20260504231644 58 349 4.0 11.0 0.00 0.00 0.00 70 1034.6
20260504230600 58 247 2.0 9.0 0.00 0.00 0.00 70 1034.9
20260504225557 57 263 4.0 9.0 0.00 0.00 0.00 71 1034.8
20260504224554 56 288 6.0 11.0 0.00 0.00 0.00 71 1034.7
20260504223551 56 288 7.0 14.0 0.00 0.00 0.00 71 1034.6
20260504222549 56 292 4.0 8.0 0.00 0.00 0.00 73 1034.6
20260504221548 56 316 4.0 8.0 0.00 0.00 0.00 73 1034.5
20260504220544 56 353 4.0 8.0 0.00 0.00 0.00 73 1034.6
20260504215541 56 330 3.0 6.0 0.00 0.00 0.00 71 1034.6
20260504214539 57 328 3.0 8.0 0.00 0.00 0.00 72 1034.6
20260504213537 58 1 3.0 6.0 0.00 0.00 0.00 71 1034.6
20260504212534 56 331 4.0 8.0 0.00 0.00 0.00 72 1034.8
20260504211531 56 14 3.0 6.0 0.00 0.00 0.00 72 1034.8
20260504210530 55 12 4.0 8.0 0.00 0.00 0.00 73 1034.8
20260504205527 55 13 3.0 6.0 0.00 0.00 0.00 73 1034.9
20260504204523 55 333 5.0 11.0 0.00 0.00 0.00 74 1034.9
20260504203520 54 337 4.0 11.0 0.00 0.00 0.00 76 1034.8
20260504202517 53 332 4.0 13.0 0.00 0.00 0.00 79 1034.8
20260504201616 52 1 6.0 11.0 0.00 0.00 0.00 80 1034.8
20260504200612 52 2 4.0 9.0 0.00 0.00 0.00 81 1034.8
20260504195609 52 27 3.0 7.0 0.00 0.00 0.00 79 1034.7
20260504194607 51 56 3.0 8.0 0.00 0.00 0.00 80 1034.6
20260504193604 53 61 2.0 4.0 0.00 0.00 0.00 76 1034.6
20260504192602 53 53 4.0 8.0 0.00 0.00 0.00 76 1034.5
20260504191600 53 33 2.0 4.0 0.00 0.00 0.00 75 1034.5
20260504190557 52 63 3.0 7.0 0.00 0.00 0.00 76 1034.3
20260504185553 53 65 6.0 16.0 0.00 0.00 0.00 75 1034.4
20260504184551 53 43 4.0 7.0 0.00 0.00 0.00 75 1034.4
20260504183553 53 83 3.0 7.0 0.00 0.00 0.00 76 1034.3
20260504182607 53 53 3.0 8.0 0.00 0.00 0.00 75 1034.4
20260504181548 53 53 4.0 9.0 0.00 0.00 0.00 75 1034.4
20260504180545 53 95 4.0 8.0 0.00 0.00 0.00 75 1034.4
20260504175539 53 119 3.0 7.0 0.00 0.00 0.00 76 1034.5
20260504174617 53 143 1.0 4.0 0.00 0.00 0.00 77 1034.5
20260504173535 53 123 2.0 8.0 0.00 0.00 0.00 76 1034.6
20260504172531 53 83 2.0 7.0 0.00 0.00 0.00 76 1034.5
20260504171548 53 94 4.0 14.0 0.00 0.00 0.00 76 1034.6
20260504170525 53 63 2.0 6.0 0.00 0.00 0.00 77 1034.6
20260504150554 54 298 3.0 11.0 0.00 0.00 0.00 74 1035.0
20260504140539 54 26 3.0 9.0 0.00 0.00 0.00 75 1035.3
20260504130524 54 35 2.0 7.0 0.00 0.00 0.00 77 1035.5
20260504110557 54 50 2.0 4.0 0.00 0.00 0.00 76 1035.7
20260504100559 54 35 0.0 2.0 0.00 0.00 0.00 78 1035.8
20260504081609 53 34 1.0 4.0 0.00 0.00 0.00 81 1035.3
20260504080606 52 350 2.0 4.0 0.00 0.00 0.00 81 1035.2
20260504050520 55 327 4.0 11.0 0.00 0.00 0.00 76 1034.4
20260504045518 55 13 1.0 4.0 0.00 0.00 0.00 76 1034.5
20260504044615 56 281 2.0 8.0 0.00 0.00 0.00 75 1034.6
20260504043612 56 252 2.0 6.0 0.00 0.00 0.00 76 1034.4
20260504042610 56 280 1.0 7.0 0.00 0.00 0.00 75 1034.4
20260504041608 56 286 2.0 6.0 0.00 0.00 0.00 74 1034.2
20260504040605 56 274 4.0 9.0 0.00 0.00 0.00 75 1034.3